Find Starlink 4567

NORAD ID: 53970 Int'l Des: 2022-125 Owner: SPXS Country: US Constellation: starlink operational
LEOCIRCULAR

实时位置

正在加载3D地球...

关于 Starlink 4567

正在加载描述...

即将过境

Passes for default location (London). Set your location on the main map for personalized predictions.

高度历史

Loading altitude history...

两行轨道根数

1 53970U 22125G 26122.88619534 -.00000664 00000-0 -23653-4 0 9994
2 53970 53.2189 335.8632 0001299 90.5168 269.5973 15.08831614197582
Epoch: May 2, 2026 • Age: 7 hours

当前状态

高度 543.6 km
速度 7.60 km/s
星下点 44.55°N, 175.85°W
发射日期 Oct 5, 2022
运行时间 3.5 years
类型 internet

技术详情

分类 Payload
质量 305.00 kg
干质量 290.00 kg
总质量 305.00 kg
长度 0.20 m
直径 2.80 m
跨度 9.00 m
形状 Box + pan
制造商 SPXS
平台类型 Starlink
阶段状态 In Orbit
所有者/国家 SPXS/US

Most Searched